Regional Weather Roundup
Issued by NWS

Home | Current Version | Previous Version | Text Only | Print | Product List | Glossary Off
Versions: 1 2 3 4 5 6 7 8 9 10 11 12 13 14 15 16 17 18 19 20 21 22 23 24 25 26 27 28 29 30 31 32 33 34 35 36 37 38 39 40 41 42 43 44 45 46 47 48 49 50

000
ASUS43 KBIS 300902
RWRND

NORTH DAKOTA REGIONAL WEATHER ROUNDUP
NATIONAL WEATHER SERVICE BISMARCK ND
400 AM CDT SAT APR 30 2016

NOTE: "FAIR" INDICATES FEW OR NO CLOUDS BELOW 12,000 FEET WITH NO
SIGNIFICANT WEATHER AND/OR OBSTRUCTIONS TO VISIBILITY.


NDZ001>003-009>011-017-301000-
NORTHWEST NORTH DAKOTA

CITY           SKY/WX    TMP DP  RH WIND       PRES   REMARKS
WILLISTON      CLEAR     43  29  57 CALM      30.18R
MINOT          CLEAR     37  27  67 NW3       30.20R
MINOT AFB      CLEAR     40  28  62 E10       30.19S
$$

NDZ018>021-031>035-040>046-301000-
SOUTHWEST NORTH DAKOTA

CITY           SKY/WX    TMP DP  RH WIND       PRES   REMARKS
BISMARCK       CLOUDY    39  32  76 NE6       30.14R
DICKINSON      PTCLDY    35  28  75 NE8       30.11S
GARRISON         N/A     43  27  53 NE10      30.16S
HETTINGER ARPT MOCLDY    41  34  76 N10       30.10R
$$

NDZ004>008-012>016-024-026-027-054-301000-
NORTHEAST NORTH DAKOTA

CITY           SKY/WX    TMP DP  RH WIND       PRES   REMARKS
GRAND FORKS    CLEAR     39  31  72 E9        30.21R
GRND FRKS AFB  CLEAR     34  28  81 N5        30.22R
DEVILS LAKE    CLEAR     37  31  78 NE9       30.21R
$$

NDZ022-023-025-028>030-036>039-047>053-301000-
SOUTHEAST NORTH DAKOTA

CITY           SKY/WX    TMP DP  RH WIND       PRES   REMARKS
FARGO          CLEAR     45  32  60 E9        30.17R
JAMESTOWN      CLEAR     41  32  70 NE13      30.12S
$$




USA.gov is the U.S. government's official web portal to all federal, state and local government web resources and services.